Regional Weather Roundup
Issued by NWS

Home | Current Version | Previous Version | Graphics & Text | Print | Product List | Glossary On
Versions: 1 2 3 4 5 6 7 8 9 10 11 12 13 14 15 16 17 18 19 20 21 22 23 24 25 26 27 28 29 30 31 32 33 34 35 36 37 38 39 40 41 42 43 44 45 46 47 48 49 50
000
ASUS43 KOAX 250610
RWRNE

WEATHER ROUNDUP FOR NEBRASKA
NATIONAL WEATHER SERVICE OMAHA NE
100 AM CDT SAT OCT 25 2014

NOTES: SATELLITE DATA IS BEING USED TO AUGMENT CLOUD COVER ABOVE
       12000 FEET.
       "FAIR" INDICATES FEW OR NO CLOUDS BELOW 12,000 FEET WITH NO
       SIGNIFICANT WEATHER AND/OR OBSTRUCTIONS TO VISIBILITY.

  * THESE STATIONS DO NOT REPORT WEATHER SUCH AS RAIN...SNOW OR FOG.

NEZ001>004-019>022-054>056-250700-
NEBRASKA PANHANDLE

CITY           SKY/WX    TMP DP  RH WIND       PRES   REMARKS
SCOTTSBLUFF    CLEAR     47  32  56 CALM      30.13R
6HR MIN TEMP:  46; 6HR MAX TEMP:  70;

ALLIANCE       CLEAR     36  32  85 W7        30.12R WCI  30
6HR MIN TEMP:  36; 6HR MAX TEMP:  67;

CHADRON        CLEAR     38  34  85 W3        30.14R
6HR MIN TEMP:  38; 6HR MAX TEMP:  70;

KIMBALL        CLEAR     47  28  47 W8        30.17S
SIDNEY         CLEAR     47  32  56 NW7       30.15S
6HR MIN TEMP:  45; 6HR MAX TEMP:  67;

$$

NEZ057>060-069>072-079>082-250700-
SOUTHWEST NEBRASKA

CITY           SKY/WX    TMP DP  RH WIND       PRES   REMARKS
NORTH PLATTE   CLEAR     43  37  79 CALM      30.08R
6HR MIN TEMP:  41; 6HR MAX TEMP:  67;

IMPERIAL       CLEAR     52  33  48 W5        30.10S
6HR MIN TEMP:  50; 6HR MAX TEMP:  73;

LEXINGTON      CLEAR     47  41  79 CALM      30.06S
MCCOOK         CLEAR     47  36  65 NW3       30.07S
6HR MIN TEMP:  47; 6HR MAX TEMP:  72;

OGALLALA       CLEAR     47  37  69 CALM      30.09R
$$

NEZ005>010-023>029-035>040-094-250700-
NORTH CENTRAL NEBRASKA

CITY           SKY/WX    TMP DP  RH WIND       PRES   REMARKS
VALENTINE      CLEAR     43  35  73 CALM      30.09R
6HR MIN TEMP:  42; 6HR MAX TEMP:  70;

AINSWORTH      CLEAR     45  37  74 N3        30.08R
BROKEN BOW     CLEAR     42  38  85 CALM      30.07R
6HR MIN TEMP:  42; 6HR MAX TEMP:  63;

O`NEILL        CLEAR     50  41  71 CALM      30.06R
ORD            CLEAR     41  38  89 CALM      30.05R
6HR MIN TEMP:  40; 6HR MAX TEMP:  58;

THEDFORD       CLEAR     44  35  71 NW3       30.08S
$$

NEZ041-046>049-061>064-073>077-083>087-250700-
SOUTH CENTRAL NEBRASKA

CITY           SKY/WX    TMP DP  RH WIND       PRES   REMARKS
GRAND ISLAND   CLEAR     49  44  83 SW5       30.04S
6HR MIN TEMP:  48; 6HR MAX TEMP:  65;

AURORA         CLEAR     49  44  82 CALM      30.03F
HASTINGS       CLEAR     50  45  83 CALM      30.05R
6HR MIN TEMP:  50; 6HR MAX TEMP:  66;

HEBRON         CLEAR     49  45  88 CALM      30.03S
HOLDREGE       CLEAR     50  43  76 CALM      30.06S
KEARNEY *      CLEAR     50  43  76 CALM      30.06S
YORK           CLEAR     54  46  76 CALM      30.03S
$$

NEZ011>018-030>034-042>045-250700-
NORTHEAST NEBRASKA

CITY           SKY/WX    TMP DP  RH WIND       PRES   REMARKS
NORFOLK        CLEAR     45  43  93 SW3       30.02S
6HR MIN TEMP:  45; 6HR MAX TEMP:  62;

ALBION         CLEAR     43  39  85 NW3       30.04R
BLAIR          CLEAR     60  47  61 NW6       30.01S
COLUMBUS *     CLEAR     45  37  76 MISG      30.04R
FREMONT        CLEAR     51  46  84 NW6       30.02S
TEKAMAH        CLEAR     48  44  86 N6        30.02R
6HR MIN TEMP:  48; 6HR MAX TEMP:  65;

WAYNE          CLEAR     45  42  91 CALM      30.03S
$$

NEZ050>053-065>068-078-088>093-250700-
SOUTHEAST NEBRASKA

CITY           SKY/WX    TMP DP  RH WIND       PRES   REMARKS
LINCOLN        CLEAR     50  48  93 CALM      30.03S
6HR MIN TEMP:  50; 6HR MAX TEMP:  66;

OMAHA EPPLEY   CLEAR     51  50  96 NW7       30.01S
6HR MIN TEMP:  49; 6HR MAX TEMP:  69;

BEATRICE       CLEAR     49  47  90 CALM      30.03R
FALLS CITY     CLEAR     56  55  97 NW6       30.00R FOG
6HR MIN TEMP:  56; 6HR MAX TEMP:  73;

NEBRASKA CITY  CLEAR     60  51  73 N5        30.01S
PLATTSMOUTH    CLEAR     55  50  83 W3        30.01S
$$

NEZ044-045-051>053-067-250700-
OMAHA AREA

CITY           SKY/WX    TMP DP  RH WIND       PRES   REMARKS
OMAHA EPPLEY   CLEAR     51  50  96 NW7       30.01S
6HR MIN TEMP:  49; 6HR MAX TEMP:  69;

BLAIR          CLEAR     60  47  61 NW6       30.01S
FREMONT        CLEAR     51  46  84 NW6       30.02S
MILLARD        CLEAR     53  51  94 CALM      30.01S FOG
OFFUTT AFB     CLEAR     53  53 100 NW3       30.00R
PLATTSMOUTH    CLEAR     55  50  83 W3        30.01S
WAHOO          FAIR      50  45  82 N6        30.01S
$$



USA.gov is the U.S. government's official web portal to all federal, state and local government web resources and services.